Weather History for Cincinnati, OH

Change the Weather History Date:

Monday, June 9, 2014

  Actual Average Record
Temperature  
Mean Temperature 64 °F -  
Max Temperature 73 °F 82 °F 94 °F (1952)
Min Temperature 55 °F 61 °F 47 °F (1949)
Degree Days  
Heating Degree Days 1    
Growing Degree Days 14 (Base 50)    
Moisture  
Dew Point 58 °F    
Average Humidity 90    
Maximum Humidity 100    
Minimum Humidity 61    
Precipitation  
Precipitation 0.00 in - - ()
Sea Level Pressure  
Sea Level Pressure 29.97 in    
Wind  
Wind Speed 1 mph (NE)    
Max Wind Speed 8 mph    
Max Gust Speed -    
Visibility 5 miles    
Events Fog    
Averages and records for this station are not official NWS values.
T = Trace of Precipitation, MM = Missing Value Source: NWS Daily Summary

Daily Weather History Graph

Daily Weather History Graph

Search for Another Location

Airport:

Trip Planner

Search our weather history database for the weather conditions in past years. The results will help you decide how hot, cold, wet, or windy it might be!

Date:

Astronomy

Jun. 09, 2014 Rise Set
Actual Time 6:11 AM EDT 9:02 PM EDT
Civil Twilight 5:39 AM EDT 9:34 PM EDT
Nautical Twilight 4:59 AM EDT 10:14 PM EDT
Astronomical Twilight 4:13 AM EDT 11:01 PM EDT
Moon 5:24 PM EDT (6/9) 3:36 AM EDT (6/9)
Length of Visible Light 15h 55m
Length of Day
14h 51m
Waxing Gibbous, 85% of the Moon is Illuminated
Jun 9
Waxing Gibbous
Jun 13
Full
Jun 19
Last Quarter
Jun 27
New
Jul 5
First Quarter

Hourly Weather History & Observations

Time (EDT) Temp. Dew Point Humidity Pressure Visibility Wind Dir Wind Speed Gust Speed Precip Events Conditions
12:38 AM 57.9 °F 57.9 °F 100% 29.99 in 0.8 mi Calm Calm - N/A   Clear
12:44 AM 59.0 °F 57.9 °F 96% 29.99 in 2.0 mi Calm Calm - N/A   Clear
12:53 AM 59.0 °F 59.0 °F 100% 29.99 in 4.0 mi Calm Calm - N/A   Clear
1:27 AM 57.9 °F 57.0 °F 97% 29.99 in 2.0 mi ENE 3.5 mph - N/A   Clear
1:39 AM 59.0 °F 57.9 °F 96% 29.98 in 3.0 mi NE 4.6 mph - N/A   Clear
1:53 AM 59.0 °F 59.0 °F 100% 29.97 in 3.0 mi NNE 3.5 mph - N/A   Clear
2:18 AM 57.0 °F 57.0 °F 100% 29.98 in 1.8 mi Calm Calm - N/A   Clear
2:31 AM 57.0 °F 57.0 °F 100% 29.98 in 4.0 mi Calm Calm - N/A   Clear
2:53 AM 57.0 °F 57.0 °F 100% 29.97 in 3.0 mi Calm Calm - N/A   Clear
2:58 AM 57.0 °F 57.0 °F 100% 29.98 in 1.5 mi Calm Calm - N/A   Clear
3:00 AM 57.0 °F 55.9 °F 96% 29.98 in 0.8 mi Calm Calm - N/A   Mist
3:16 AM 57.9 °F 57.9 °F 100% 29.98 in 1.2 mi NE 3.5 mph - N/A   Partly Cloudy
3:22 AM 57.9 °F 57.0 °F 97% 29.97 in 3.0 mi NE 3.5 mph - N/A   Partly Cloudy
3:26 AM 57.9 °F 57.0 °F 97% 29.97 in 1.8 mi Calm Calm - N/A   Partly Cloudy
3:43 AM 57.9 °F 57.9 °F 100% 29.97 in 1.0 mi ENE 3.5 mph - N/A   Mist
3:50 AM 57.2 °F 57.2 °F 100% 29.96 in 0.2 mi Calm Calm - N/A Fog Fog
3:53 AM 57.0 °F 57.0 °F 100% 29.96 in 0.2 mi NNE 3.5 mph - N/A Fog Fog
4:53 AM 57.0 °F 57.0 °F 100% 29.95 in 0.2 mi Calm Calm - N/A Fog Fog
5:53 AM 55.9 °F 55.9 °F 100% 29.97 in 0.2 mi Calm Calm - N/A Fog Fog
6:53 AM 55.9 °F 55.9 °F 100% 29.99 in 0.5 mi Calm Calm - N/A Fog Fog
7:53 AM 57.0 °F 57.0 °F 100% 30.00 in 2.5 mi Calm Calm - N/A   Scattered Clouds
8:00 AM 57.9 °F 57.9 °F 100% 30.00 in 1.8 mi Calm Calm - N/A   Clear
8:15 AM 57.9 °F 57.9 °F 100% 30.00 in 2.5 mi Calm Calm - N/A   Scattered Clouds
8:53 AM 62.1 °F 61.0 °F 96% 30.00 in 2.5 mi Calm Calm - N/A   Scattered Clouds
9:00 AM 62.1 °F 60.1 °F 93% 30.00 in 4.0 mi Calm Calm - N/A   Clear
9:53 AM 66.0 °F 59.0 °F 78% 29.99 in 10.0 mi ENE 5.8 mph - N/A   Clear
10:53 AM 69.8 °F 57.2 °F 64% 29.98 in 10.0 mi ENE 8.1 mph - N/A   Clear
11:53 AM 70.0 °F 57.0 °F 63% 29.98 in 10.0 mi NE 3.5 mph - N/A   Clear
12:53 PM 70.0 °F 57.9 °F 65% 29.98 in 10.0 mi NE 5.8 mph - N/A   Scattered Clouds
3:53 PM 73.4 °F 59.0 °F 61% 29.93 in 10.0 mi NNE 8.1 mph - N/A   Mostly Cloudy
4:53 PM 73.0 °F 59.0 °F 61% 29.92 in 10.0 mi Calm Calm - N/A   Mostly Cloudy
5:53 PM 72.0 °F 60.1 °F 66% 29.92 in 10.0 mi NE 5.8 mph - N/A   Scattered Clouds
6:53 PM 73.0 °F 60.1 °F 64% 29.91 in 10.0 mi NNE 5.8 mph - N/A   Scattered Clouds
7:53 PM 72.0 °F 60.1 °F 66% 29.92 in 10.0 mi Calm Calm - N/A   Overcast
8:53 PM 69.1 °F 60.1 °F 73% 29.91 in 10.0 mi NE 3.5 mph - N/A   Mostly Cloudy
9:53 PM 64.9 °F 61.0 °F 87% 29.93 in 10.0 mi Calm Calm - N/A   Mostly Cloudy
10:53 PM 61.0 °F 60.1 °F 97% 29.93 in 10.0 mi Calm Calm - N/A   Clear
11:53 PM 61.0 °F 59.0 °F 93% 29.92 in 9.0 mi Calm Calm - N/A   Clear